Theta_e
294 293 292 291 290 290 289 289 289 290 289 289 289 289 289 289 289 289 289 289 288 288 288 287 284 284 284 284 284 284 283 283 283 287 282 283 281 281 282 283 285 284 285
294 292 291 290 289 289 289 288 289 288 289 289 288 288 288 288 288 288 288 288 288 287 287 286 283 282 283 283 283 282 283 282 282 280 282 283 281 280 280 282 284 285 284
293 291 290 289 289 288 288 288 288 288 288 288 288 287 287 287 287 287 288 287 287 287 286 285 283 282 282 282 282 282 283 281 282 282 282 282 281 281 281 286 284 285 286
292 290 289 289 289 289 288 287 287 287 287 287 287 287 287 287 287 286 286 286 286 286 285 283 282 282 281 281 281 281 281 282 282 283 283 282 281 281 282 281 283 285 282
291 289 289 289 289 288 287 287 287 286 286 287 286 286 286 286 286 286 286 286 285 285 284 282 282 282 282 282 280 282 282 282 283 283 282 283 281 279 278 279 280 282 284
290 289 289 288 287 287 286 286 286 286 286 286 285 285 285 284 285 286 286 285 284 284 283 283 283 282 283 283 282 282 282 282 280 281 281 279 278 278 280 278 278 280 280
290 289 288 288 287 286 286 285 285 285 285 284 285 285 285 285 285 286 286 285 284 284 283 283 282 281 281 282 282 281 279 280 279 280 280 279 279 278 278 277 278 278 279
290 289 288 288 287 286 285 285 285 285 284 284 284 284 284 284 285 286 287 286 284 284 284 283 283 282 282 281 281 280 278 278 279 280 280 280 280 280 280 278 277 277 279
290 289 288 287 286 285 285 285 285 284 284 284 284 284 283 284 284 286 286 286 284 283 283 283 283 282 283 282 280 278 278 278 279 281 281 281 282 280 278 277 279 279 283
290 289 288 287 286 285 285 284 285 285 283 283 282 284 284 284 284 285 286 286 284 283 282 282 281 282 283 283 282 280 278 278 277 277 279 281 281 278 277 276 276 277 278
289 288 287 286 286 286 286 284 284 283 283 283 282 283 284 284 284 285 286 285 284 283 283 283 282 283 284 284 284 282 280 280 279 278 278 278 278 277 277 277 276 276 277
289 287 286 285 285 285 285 283 283 283 283 283 282 282 283 283 283 285 286 287 286 284 283 284 283 284 284 285 285 285 285 283 282 281 280 279 279 279 279 277 276 276 276
286 285 285 284 284 285 284 284 283 283 284 283 282 283 283 283 283 284 285 286 287 286 285 285 284 284 285 285 285 286 283 284 283 282 281 281 280 279 276 275 274 274 274
285 284 284 284 284 284 284 285 285 284 283 283 283 283 284 283 283 283 284 285 285 286 286 286 286 285 285 285 282 284 285 285 283 282 282 283 281 276 276 276 276 277 275
285 283 284 285 285 284 284 284 284 285 285 285 285 285 285 284 285 285 284 284 284 284 284 284 284 284 284 284 284 284 284 284 282 283 282 282 280 278 277 277 274 275 274
284 284 284 284 284 284 283 283 282 284 283 284 285 284 284 284 284 284 285 285 286 285 283 282 281 282 282 284 284 283 284 282 283 282 282 281 280 280 279 277 274 273 274
285 284 284 284 284 284 283 284 285 282 282 284 285 286 286 286 286 286 286 286 286 286 284 283 283 282 283 283 283 283 283 284 283 282 282 282 281 280 279 278 277 274 274
284 283 284 283 283 282 282 282 282 282 282 282 283 284 285 286 286 286 286 286 285 285 285 284 283 283 284 283 283 283 283 284 283 281 281 282 281 279 278 277 277 276 276
282 282 282 281 281 281 280 280 281 281 282 282 283 284 284 285 285 285 286 284 283 283 284 284 285 285 284 285 284 284 284 284 284 283 281 281 280 279 277 277 277 276 275
280 278 279 280 277 278 279 280 280 280 280 280 281 282 284 284 284 284 284 284 284 284 285 285 285 285 285 285 285 285 284 284 284 283 282 282 280 279 277 277 276 275 275
280 277 277 278 278 279 279 279 279 279 279 280 281 283 283 283 283 284 284 284 284 284 284 284 285 285 285 285 285 285 285 285 285 284 283 282 281 279 279 278 277 276 275
278 277 277 278 277 275 277 278 279 278 278 279 280 281 280 281 282 283 283 284 285 285 285 284 284 284 284 285 285 284 284 285 285 284 283 282 281 281 279 278 277 276 276
276 275 274 275 275 274 275 277 277 277 278 278 278 278 278 279 280 281 283 284 284 284 285 284 283 283 284 284 285 284 283 284 285 285 284 283 282 281 280 279 278 276 275
275 276 276 276 274 275 275 275 275 274 274 275 275 276 276 278 278 279 279 280 280 282 283 284 284 283 284 284 285 285 285 285 285 285 285 283 283 282 281 279 278 277 276
274 275 274 275 274 275 275 273 273 273 273 274 275 275 275 276 276 277 278 278 277 278 279 279 281 282 283 283 283 283 284 285 284 284 284 284 283 282 281 280 279 278 277
273 274 274 274 273 274 273 274 274 273 273 274 275 275 275 275 276 276 276 275 275 276 276 278 278 278 278 280 281 280 280 280 281 282 284 284 283 283 282 281 280 278 278
Wind_Speed
11 10 9 9 9 9 8 8 8 8 7 7 6 6 5 5 4 4 4 4 4 4 4 3 4 2 2 2 2 2 3 3 3 1 2 3 4 9 8 7 10 10 11
11 10 10 10 10 10 9 9 9 8 7 7 7 6 6 5 5 5 5 4 4 4 3 3 3 1 3 2 2 3 3 4 3 2 1 3 3 6 7 5 6 7 8
11 11 10 10 10 10 9 9 9 8 8 8 7 7 7 6 5 4 4 4 3 3 3 2 3 1 2 2 2 3 2 2 2 2 3 2 2 5 5 4 4 7 5
12 12 11 11 11 10 10 10 10 9 9 8 7 6 6 6 5 5 5 5 4 3 2 1 2 1 1 2 1 2 2 1 1 1 1 2 1 2 5 7 6 6 8
13 12 11 11 10 10 10 10 10 9 8 8 8 7 6 6 5 6 5 5 5 4 4 3 3 2 0 2 2 1 1 1 2 2 2 2 3 4 6 6 6 6 2
13 13 11 11 11 10 10 10 10 10 10 9 8 8 8 5 8 9 6 6 5 5 5 4 4 4 4 4 2 2 3 1 1 2 1 2 2 3 5 6 7 5 4
13 12 12 12 11 11 10 10 10 10 9 9 8 8 8 7 11 11 10 5 5 5 5 4 4 3 4 4 5 3 2 1 1 2 1 1 1 1 5 7 7 5 4
13 13 12 12 11 11 10 10 10 9 9 8 8 8 7 6 10 11 10 6 5 6 6 6 6 6 7 6 5 5 5 5 5 4 4 3 4 3 2 5 8 8 7
13 13 13 13 12 11 11 10 9 8 8 8 6 8 7 6 11 11 10 7 7 8 7 8 7 7 8 12 7 7 6 7 7 10 9 8 8 6 3 3 2 5 2
13 11 11 10 11 12 10 9 7 7 6 5 6 7 7 7 11 13 11 6 8 5 7 8 10 9 10 12 10 8 8 7 6 6 6 8 9 6 5 3 1 3 3
9 10 9 10 9 9 9 6 7 7 5 6 7 7 8 8 8 14 14 7 6 5 6 6 6 14 15 15 16 10 9 4 6 5 5 5 5 5 5 5 4 3 2
10 10 9 8 6 6 7 6 6 7 6 6 6 6 5 6 9 10 14 16 12 7 8 5 6 10 14 16 13 17 16 11 5 5 6 6 5 4 4 4 5 5 5
9 8 7 7 6 6 8 7 6 5 5 5 5 5 4 4 5 11 13 14 15 10 7 8 10 12 14 12 17 17 12 6 6 7 7 7 4 2 1 2 4 5 6
9 8 6 7 6 5 4 4 5 5 5 4 4 4 4 3 4 4 4 6 10 9 9 8 10 11 11 10 6 9 7 7 8 8 8 6 2 3 4 4 3 3 3
8 7 7 5 5 6 3 4 4 3 4 4 4 4 4 4 3 6 5 4 4 5 3 3 5 6 7 6 7 7 6 6 8 7 7 7 7 6 6 5 4 4 5
8 6 6 6 5 4 5 4 3 3 6 7 6 4 1 6 4 5 6 8 9 9 4 6 7 7 7 6 7 6 6 8 8 8 8 7 8 7 7 6 6 6 6
8 7 5 5 5 5 4 4 4 3 1 3 7 9 10 9 9 10 10 10 11 9 6 7 7 8 7 7 7 7 8 7 7 7 8 8 7 7 8 7 7 7 8
6 6 5 5 4 4 3 3 2 1 1 1 1 3 3 5 8 8 8 8 4 6 6 7 9 9 7 7 7 7 7 7 6 7 8 8 7 7 7 8 8 8 8
6 4 4 4 3 3 3 3 2 1 1 2 1 2 2 5 7 8 9 4 6 6 6 7 6 6 7 6 6 7 8 7 7 7 7 7 7 7 8 7 7 9 9
5 7 5 4 4 3 3 3 3 3 3 3 3 3 2 3 3 4 5 4 4 5 5 6 6 5 6 7 7 7 7 8 7 7 7 7 7 7 8 8 7 8 7
4 4 4 4 3 3 3 3 2 2 3 4 4 4 7 5 5 4 4 4 5 5 5 5 6 6 5 6 6 7 7 7 6 7 7 7 7 7 7 7 7 7 7
3 3 3 3 3 3 3 3 3 4 5 5 4 4 7 4 5 5 5 4 4 4 4 4 5 6 6 5 6 6 7 7 6 6 7 6 7 7 7 7 7 7 7
3 4 4 3 3 3 4 4 4 5 4 4 4 4 3 4 4 5 5 4 4 4 3 4 4 4 4 4 4 5 6 6 5 5 6 7 6 7 7 7 7 6 6
4 4 4 3 3 3 3 3 3 5 5 4 4 4 5 5 5 5 5 5 5 5 4 4 4 6 6 5 5 5 5 5 5 5 7 6 7 7 7 7 7 8 7
4 4 3 3 3 3 3 4 4 4 5 5 5 6 6 5 5 5 5 5 4 5 5 4 4 5 8 9 8 8 7 8 7 6 6 7 8 10 8 7 8 7 9
4 4 3 3 4 5 5 5 5 5 6 6 6 6 6 5 6 6 6 5 5 5 6 5 6 7 7 7 8 7 8 6 7 8 6 5 7 6 6 8 11 7 9
Wind_Direction
176 172 168 171 173 169 173 170 167 159 161 161 159 157 160 157 153 143 132 136 135 122 108 106 90 55 59 52 49 47 34 1 342 322 296 327 306 342 336 357 355 7 10
175 171 174 169 172 175 174 169 164 164 165 166 166 169 172 172 171 163 149 159 156 142 127 128 101 110 82 51 48 53 47 24 349 327 343 331 314 334 307 332 353 342 6
170 173 172 175 177 177 171 166 167 165 169 169 177 181 175 178 174 169 162 162 163 154 170 174 139 157 78 36 41 55 58 39 19 352 332 344 312 355 328 314 338 331 352
171 176 177 179 179 176 169 168 171 174 174 178 183 183 181 179 176 172 173 173 174 176 176 169 127 92 73 31 12 42 12 354 49 1 8 342 335 339 315 338 346 2 350
174 178 181 175 174 170 171 173 171 174 177 177 178 186 186 188 187 183 184 180 182 177 180 175 172 132 313 359 291 14 338 347 344 16 38 0 17 356 357 327 306 330 31
177 180 173 172 172 175 173 175 175 178 179 178 184 186 192 194 190 191 189 189 192 194 204 192 181 181 189 178 176 40 16 324 352 354 39 20 45 331 338 330 328 343 354
178 176 175 174 176 178 176 178 184 185 178 186 188 191 199 202 196 198 192 206 204 210 208 207 204 212 222 207 197 190 236 279 289 197 182 206 194 51 319 331 337 322 305
180 178 175 175 177 176 179 186 186 183 187 189 192 197 204 207 202 207 192 213 222 229 220 218 222 221 216 221 226 230 239 239 230 230 226 202 224 223 260 298 298 299 281
182 180 176 178 175 178 186 187 187 185 187 192 191 197 206 210 206 212 203 211 225 230 226 226 224 231 222 215 225 238 242 248 235 231 245 248 240 245 262 302 313 312 300
179 174 172 171 176 183 185 183 183 192 187 177 189 205 208 216 208 213 210 211 226 227 232 233 221 234 231 222 230 239 250 245 219 238 243 246 258 250 231 219 275 308 312
155 152 158 167 172 180 174 170 177 179 170 186 198 206 212 216 220 219 220 218 226 233 236 237 228 227 232 233 231 240 238 244 237 240 259 259 237 248 230 217 211 225 258
149 152 153 156 157 155 158 164 171 177 181 192 203 214 218 223 231 231 229 230 232 236 245 242 241 234 238 239 237 242 245 249 237 247 258 260 261 239 241 236 221 220 231
135 133 137 139 147 159 167 169 169 181 190 200 205 219 223 210 230 231 237 238 241 241 242 246 239 239 243 244 243 243 241 229 231 238 246 252 243 257 210 225 252 263 259
131 135 137 147 152 155 161 165 172 183 193 202 207 223 229 228 232 222 221 237 247 248 255 250 242 241 238 242 242 247 238 230 228 231 238 242 232 226 234 221 230 233 268
130 133 139 140 156 162 165 177 188 195 193 189 207 210 209 232 233 217 215 217 226 236 257 250 249 241 243 239 239 236 232 230 235 239 238 236 232 232 239 206 228 225 238
130 135 149 151 159 166 167 172 197 232 218 242 252 229 238 256 273 264 257 251 249 237 228 249 255 255 254 253 249 250 236 235 238 240 237 237 244 240 236 214 219 221 240
134 139 141 146 160 163 170 180 177 150 136 246 252 254 252 255 244 245 256 258 257 259 248 262 267 268 262 248 247 250 254 246 240 236 245 239 235 240 237 235 224 223 232
116 125 140 147 149 148 149 145 140 169 203 201 226 288 276 261 251 267 275 279 265 244 244 255 268 273 268 253 248 250 257 258 236 239 241 247 245 240 240 240 237 233 234
130 131 126 123 122 125 131 137 150 175 230 257 275 274 299 269 270 277 278 262 270 264 264 269 253 254 260 261 249 247 249 250 248 244 243 244 243 235 244 245 245 243 240
113 123 125 127 134 135 152 166 179 207 234 253 267 271 278 282 268 274 269 260 264 266 270 273 277 268 258 256 256 249 249 248 247 244 241 246 238 236 242 245 241 245 237
132 134 126 132 153 163 171 189 200 219 237 244 257 263 270 273 271 258 258 254 260 260 262 263 272 275 274 276 270 269 266 258 246 245 249 250 251 242 243 248 250 245 249
137 138 149 147 143 165 197 201 213 232 237 239 251 267 299 291 280 285 281 270 264 270 272 272 277 284 286 286 289 289 284 278 261 255 250 250 251 253 249 246 247 249 250
156 157 159 162 179 176 197 213 226 233 242 251 256 262 265 263 270 274 281 294 301 295 287 287 292 289 293 286 285 289 294 294 295 268 263 258 250 255 252 251 247 244 245
172 181 178 178 187 206 221 232 240 245 250 251 253 258 260 262 266 272 282 288 294 295 296 289 287 290 293 291 282 273 265 274 289 290 278 260 265 259 257 253 248 247 250
179 173 184 203 211 227 237 242 249 252 252 252 256 256 262 257 254 259 270 277 279 284 284 284 280 292 291 291 288 288 295 284 270 271 290 281 256 264 258 255 256 251 249
175 189 203 200 214 222 229 235 237 239 242 248 250 255 250 254 257 264 267 264 267 272 277 275 272 276 283 284 279 294 299 303 306 297 286 265 276 278 256 258 257 254 254